Time,TemperatureF,DewpointF,PressureIn,WindDirection,WindDirectionDegrees,WindSpeedMPH,WindSpeedGustMPH,Humidity,HourlyPrecipIn,Conditions,Clouds,dailyrainin,SolarRadiationWatts/m^2,SoftwareType,DateUTC
2013-08-30 00:04:00,78.0,68.0,-100.00,East,89,1.0,5.0,72,0.00,,,0.00,0.000000,,2013-08-30 05:04:00,
2013-08-30 00:52:00,69.0,67.0,-100.00,South,190,3.0,37.0,92,0.79,,,0.79,0.000000,,2013-08-30 05:52:00,
2013-08-30 01:02:00,69.0,67.0,-100.00,South,190,3.0,37.0,92,0.79,,,0.79,0.000000,,2013-08-30 06:02:00,
2013-08-30 01:42:00,69.0,68.0,-100.00,South,176,1.0,4.0,97,0.00,,,0.79,0.000000,,2013-08-30 06:42:00,
2013-08-30 01:53:00,69.0,68.0,-100.00,South,176,1.0,4.0,97,0.00,,,0.79,0.000000,,2013-08-30 06:53:00,
2013-08-30 02:02:00,69.0,68.0,-100.00,South,176,1.0,4.0,97,0.00,,,0.79,0.000000,,2013-08-30 07:02:00,
2013-08-30 02:44:00,69.0,68.0,-100.00,SSE,160,0.0,3.0,98,0.00,,,0.79,0.000000,,2013-08-30 07:44:00,
2013-08-30 02:53:00,69.0,68.0,-100.00,SSE,160,0.0,3.0,98,0.00,,,0.79,0.000000,,2013-08-30 07:53:00,
2013-08-30 03:03:00,69.0,68.0,-100.00,SSE,160,0.0,3.0,98,0.00,,,0.79,0.000000,,2013-08-30 08:03:00,
2013-08-30 03:43:00,67.0,67.0,-100.00,SE,136,0.0,2.0,99,0.00,,,0.79,0.000000,,2013-08-30 08:43:00,
2013-08-30 03:52:00,67.0,67.0,-100.00,SE,136,0.0,2.0,99,0.00,,,0.79,0.000000,,2013-08-30 08:52:00,
2013-08-30 04:01:00,67.0,67.0,-100.00,SE,136,0.0,2.0,99,0.00,,,0.79,0.000000,,2013-08-30 09:01:00,
2013-08-30 04:44:00,69.0,68.0,-100.00,NNE,29,1.0,9.0,98,0.00,,,0.79,0.000000,,2013-08-30 09:44:00,
2013-08-30 04:53:00,69.0,68.0,-100.00,NNE,29,1.0,9.0,98,0.00,,,0.79,0.000000,,2013-08-30 09:53:00,
2013-08-30 05:03:00,69.0,68.0,-100.00,NNE,29,1.0,9.0,98,0.00,,,0.79,0.000000,,2013-08-30 10:03:00,
2013-08-30 05:43:00,68.0,67.0,-100.00,North,352,3.0,7.0,98,0.00,,,0.79,0.000000,,2013-08-30 10:43:00,
2013-08-30 05:53:00,68.0,67.0,-100.00,North,352,3.0,7.0,98,0.00,,,0.79,0.000000,,2013-08-30 10:53:00,
2013-08-30 06:03:00,68.0,67.0,-100.00,North,352,3.0,7.0,98,0.00,,,0.79,0.000000,,2013-08-30 11:03:00,
2013-08-30 06:42:00,68.0,67.0,-100.00,North,350,5.0,12.0,96,0.00,,,0.79,0.000000,,2013-08-30 11:42:00,
2013-08-30 06:52:00,68.0,67.0,-100.00,North,350,5.0,12.0,96,0.00,,,0.79,0.000000,,2013-08-30 11:52:00,
2013-08-30 07:01:00,68.0,67.0,-100.00,North,350,5.0,12.0,96,0.00,,,0.79,0.000000,,2013-08-30 12:01:00,
2013-08-30 07:42:00,67.0,66.0,-100.00,North,351,5.0,9.0,95,0.01,,,0.80,8.000000,,2013-08-30 12:42:00,
2013-08-30 07:52:00,67.0,66.0,-100.00,North,351,5.0,9.0,95,0.01,,,0.80,8.000000,,2013-08-30 12:52:00,
2013-08-30 08:02:00,67.0,66.0,-100.00,North,351,5.0,9.0,95,0.01,,,0.80,8.000000,,2013-08-30 13:02:00,
2013-08-30 08:42:00,67.0,65.0,-100.00,NNE,18,3.0,8.0,94,0.00,,,0.80,32.000000,,2013-08-30 13:42:00,
2013-08-30 08:52:00,67.0,65.0,-100.00,NNE,18,3.0,8.0,94,0.00,,,0.80,32.000000,,2013-08-30 13:52:00,
2013-08-30 09:02:00,67.0,65.0,-100.00,NNE,18,3.0,8.0,94,0.00,,,0.80,32.000000,,2013-08-30 14:02:00,
2013-08-30 09:42:00,69.0,65.0,-100.00,North,9,4.0,14.0,87,0.00,,,0.80,141.000000,,2013-08-30 14:42:00,
2013-08-30 09:52:00,69.0,65.0,-100.00,North,9,4.0,14.0,87,0.00,,,0.80,141.000000,,2013-08-30 14:52:00,
2013-08-30 10:02:00,69.0,65.0,-100.00,North,9,4.0,14.0,87,0.00,,,0.80,141.000000,,2013-08-30 15:02:00,
2013-08-30 10:43:00,72.0,64.0,-100.00,NNE,17,7.0,13.0,75,0.00,,,0.80,333.000000,,2013-08-30 15:43:00,
2013-08-30 10:54:00,72.0,64.0,-100.00,NNE,17,7.0,13.0,75,0.00,,,0.80,333.000000,,2013-08-30 15:54:00,
2013-08-30 11:05:00,72.0,64.0,-100.00,NNE,17,7.0,13.0,75,0.00,,,0.80,333.000000,,2013-08-30 16:05:00,
2013-08-30 11:43:00,74.0,64.0,-100.00,NNE,19,8.0,13.0,72,0.00,,,0.80,274.000000,,2013-08-30 16:43:00,
2013-08-30 11:53:00,74.0,64.0,-100.00,NNE,19,8.0,13.0,72,0.00,,,0.80,274.000000,,2013-08-30 16:53:00,
2013-08-30 12:03:00,74.0,64.0,-100.00,NNE,19,8.0,13.0,72,0.00,,,0.80,274.000000,,2013-08-30 17:03:00,
2013-08-30 12:42:00,78.0,65.0,-100.00,NNE,19,6.0,16.0,65,0.00,,,0.80,436.000000,,2013-08-30 17:42:00,
2013-08-30 12:53:00,78.0,65.0,-100.00,NNE,19,6.0,16.0,65,0.00,,,0.80,436.000000,,2013-08-30 17:53:00,
2013-08-30 13:02:00,78.0,65.0,-100.00,NNE,19,6.0,16.0,65,0.00,,,0.80,436.000000,,2013-08-30 18:02:00,
2013-08-30 13:42:00,78.0,63.0,-100.00,NE,37,7.0,17.0,61,0.00,,,0.80,571.000000,,2013-08-30 18:42:00,
2013-08-30 13:52:00,78.0,63.0,-100.00,NE,37,7.0,17.0,61,0.00,,,0.80,571.000000,,2013-08-30 18:52:00,
2013-08-30 14:01:00,78.0,63.0,-100.00,NE,37,7.0,17.0,61,0.00,,,0.80,571.000000,,2013-08-30 19:01:00,
2013-08-30 14:42:00,81.0,63.0,-100.00,NE,47,8.0,17.0,55,0.00,,,0.80,678.000000,,2013-08-30 19:42:00,
2013-08-30 14:53:00,81.0,63.0,-100.00,NE,47,8.0,17.0,55,0.00,,,0.80,678.000000,,2013-08-30 19:53:00,
2013-08-30 15:03:00,81.0,63.0,-100.00,NE,47,8.0,17.0,55,0.00,,,0.80,678.000000,,2013-08-30 20:03:00,
2013-08-30 15:43:00,83.0,63.0,-100.00,NE,51,8.0,15.0,51,0.00,,,0.80,724.000000,,2013-08-30 20:43:00,
2013-08-30 15:52:00,83.0,63.0,-100.00,NE,51,8.0,15.0,51,0.00,,,0.80,724.000000,,2013-08-30 20:52:00,
2013-08-30 16:02:00,83.0,63.0,-100.00,NE,51,8.0,15.0,51,0.00,,,0.80,724.000000,,2013-08-30 21:02:00,
2013-08-30 16:44:00,84.0,62.0,-100.00,NE,47,6.0,16.0,47,0.00,,,0.80,631.000000,,2013-08-30 21:44:00,
2013-08-30 16:55:00,84.0,62.0,-100.00,NE,47,6.0,16.0,47,0.00,,,0.80,631.000000,,2013-08-30 21:55:00,
2013-08-30 17:04:00,84.0,62.0,-100.00,NE,47,6.0,16.0,47,0.00,,,0.80,631.000000,,2013-08-30 22:04:00,
2013-08-30 17:43:00,85.0,61.0,-100.00,NE,44,6.0,14.0,45,0.00,,,0.80,507.000000,,2013-08-30 22:43:00,
2013-08-30 17:54:00,85.0,61.0,-100.00,NE,44,6.0,14.0,45,0.00,,,0.80,507.000000,,2013-08-30 22:54:00,
2013-08-30 18:03:00,85.0,61.0,-100.00,NE,44,6.0,14.0,45,0.00,,,0.80,507.000000,,2013-08-30 23:03:00,
2013-08-30 18:42:00,83.0,58.0,-100.00,NE,50,6.0,11.0,42,0.00,,,0.80,281.000000,,2013-08-30 23:42:00,
2013-08-30 18:53:00,83.0,58.0,-100.00,NE,50,6.0,11.0,42,0.00,,,0.80,281.000000,,2013-08-30 23:53:00,
2013-08-30 19:02:00,83.0,58.0,-100.00,NE,50,6.0,11.0,42,0.00,,,0.80,281.000000,,2013-08-31 00:02:00,
2013-08-30 19:42:00,80.0,57.0,-100.00,NE,52,6.0,12.0,46,0.00,,,0.80,170.000000,,2013-08-31 00:42:00,
2013-08-30 19:52:00,80.0,57.0,-100.00,NE,52,6.0,12.0,46,0.00,,,0.80,170.000000,,2013-08-31 00:52:00,
2013-08-30 20:01:00,80.0,57.0,-100.00,NE,52,6.0,12.0,46,0.00,,,0.80,170.000000,,2013-08-31 01:01:00,
2013-08-30 20:42:00,74.0,58.0,-100.00,ENE,61,4.0,10.0,57,0.00,,,0.80,22.000000,,2013-08-31 01:42:00,
2013-08-30 20:52:00,74.0,58.0,-100.00,ENE,61,4.0,10.0,57,0.00,,,0.80,22.000000,,2013-08-31 01:52:00,
2013-08-30 21:02:00,74.0,58.0,-100.00,ENE,61,4.0,10.0,57,0.00,,,0.80,22.000000,,2013-08-31 02:02:00,
2013-08-30 21:42:00,70.0,59.0,-100.00,ENE,61,4.0,8.0,67,0.00,,,0.80,0.000000,,2013-08-31 02:42:00,
2013-08-30 21:52:00,70.0,59.0,-100.00,ENE,61,4.0,8.0,67,0.00,,,0.80,0.000000,,2013-08-31 02:52:00,
2013-08-30 22:02:00,70.0,59.0,-100.00,ENE,61,4.0,8.0,67,0.00,,,0.80,0.000000,,2013-08-31 03:02:00,
2013-08-30 22:45:00,68.0,60.0,-100.00,ENE,60,3.0,7.0,75,0.00,,,0.80,0.000000,,2013-08-31 03:45:00,
2013-08-30 22:54:00,68.0,60.0,-100.00,ENE,60,3.0,7.0,75,0.00,,,0.80,0.000000,,2013-08-31 03:54:00,
2013-08-30 23:05:00,68.0,60.0,-100.00,ENE,60,3.0,7.0,75,0.00,,,0.80,0.000000,,2013-08-31 04:05:00,
2013-08-30 23:44:00,64.0,60.0,-100.00,ENE,68,2.0,6.0,86,0.00,,,0.80,0.000000,,2013-08-31 04:44:00,
2013-08-30 23:54:00,64.0,60.0,-100.00,ENE,68,2.0,6.0,86,0.00,,,0.80,0.000000,,2013-08-31 04:54:00,